Вернуться в каталог

INMARSAT 3-F2

АктивенСвязьGEO
NORAD 24307·PAYLOAD·🇮🇲 IM

Запущен Sep 6, 1996 с Baikonur Cosmodrome

Loading…

TLE

СвежийSource: Space-Track

Эпоха: Sep 14, 2026, 12:21 UTC

1 24307U 96053A   26257.51516199  .00000090  00000-0  00000-0 0  9997
2 24307  10.0546  53.0016 0005738 118.7543  64.4118  0.99977811109815

Отслеживайте INMARSAT 3-F2 в реальном времени с AllMySat

Download on the App Store